Find Kosmos-2558 subsatellite

NORAD ID: 64627 Int'l Des: 2022-089 Owner: TSKHM Country: RU operational
LEOCIRCULARRETROGRADESSO

リアルタイム位置

3D地球を読み込み中...

Kosmos-2558 subsatelliteについて

説明を読み込み中...

次回通過

Passes for default location (London). Set your location on the main map for personalized predictions.

高度履歴

Loading altitude history...

軌道要素

1 64627U 22089C 26106.71251683 .00005764 00000-0 16270-3 0 9995
2 64627 97.2275 203.5292 0004364 78.1940 281.9794 15.36758446 45185
Epoch: Apr 16, 2026 • Age: 16 hours

現在のステータス

高度 464.7 km
速度 7.64 km/s
衛星直下点 69.40°N, 156.43°W
打ち上げ日 Aug 1, 2022
運用期間 3.7 years
タイプ other

技術仕様

分類 Payload
質量 100.00 kg
乾燥質量 100.00 kg
総質量 100.00 kg
長さ 1.00 m
直径 0.40 m
スパン 1.00 m
形状 Hex Cyl + Ant
製造者 TSKHM
バスタイプ Nivelir
フェーズステータス In Orbit
所有者/国 TSKHM/RU

Most Searched